Zurück zum Katalog

TURKSAT 3A

AktivKommunikationGEO
NORAD 33056·PAYLOAD·🇹🇷 Turkey

Gestartet Jun 12, 2008 von Guiana Space Centre

Loading…

TLE

AktuellSource: Space-Track

Epoche: Sep 14, 2026, 14:00 UTC

1 33056U 08030B   26257.58342105  .00000138  00000-0  00000-0 0  9990
2 33056   0.0536  82.3906 0004438  75.5914  87.6030  1.00274008 53252

Verfolge TURKSAT 3A in Echtzeit mit AllMySat

Download on the App Store